| time (UTC) | temp F | wind direction | speed MPH | gust MPH | rain 1hr in | rain 24hr in | rain mn in | humidity % | barometer mb |
| 20260507043231 | 48 | 240 | 5.0 | 0.0 | 0.00 | 0.00 | 0.00 | 93 | 1010.0 |
| 20260507040306 | 48 | 260 | 8.0 | 0.0 | 0.00 | 0.00 | 0.00 | 87 | 1010.0 |
| 20260507033231 | 50 | 260 | 5.0 | 0.0 | 0.00 | 0.00 | 0.00 | 87 | 1010.0 |
| 20260507030306 | 48 | 0 | 0.0 | 0.0 | 0.00 | 0.00 | 0.00 | 93 | 1010.0 |
| 20260507023231 | 52 | 0 | 3.0 | 0.0 | 0.00 | 0.00 | 0.00 | 81 | 1009.0 |
| 20260507020246 | 52 | 250 | 6.0 | 0.0 | 0.00 | 0.00 | 0.00 | 87 | 1009.0 |
| 20260507013305 | 54 | 0 | 2.0 | 0.0 | 0.00 | 0.00 | 0.00 | 87 | 1009.0 |
| 20260507010307 | 54 | 240 | 5.0 | 0.0 | 0.00 | 0.00 | 0.00 | 87 | 1009.0 |
| 20260507003305 | 55 | 280 | 5.0 | 0.0 | 0.00 | 0.00 | 0.00 | 82 | 1009.0 |
| 20260507000306 | 54 | 270 | 5.0 | 0.0 | 0.00 | 0.00 | 0.00 | 93 | 1009.0 |
| 20260506233304 | 54 | 0 | 2.0 | 0.0 | 0.00 | 0.00 | 0.00 | 93 | 1008.0 |
| 20260506230306 | 54 | 290 | 3.0 | 0.0 | 0.00 | 0.00 | 0.00 | 87 | 1008.0 |
| 20260506223304 | 55 | 290 | 5.0 | 0.0 | 0.00 | 0.00 | 0.00 | 82 | 1008.0 |
| 20260506220306 | 55 | 310 | 3.0 | 0.0 | 0.00 | 0.00 | 0.00 | 87 | 1007.0 |
| 20260506213238 | 54 | 260 | 6.0 | 0.0 | 0.00 | 0.00 | 0.00 | 93 | 1007.0 |
| 20260506210240 | 55 | 210 | 5.0 | 0.0 | 0.00 | 0.00 | 0.00 | 87 | 1007.0 |
| 20260506203304 | 55 | 0 | 3.0 | 0.0 | 0.00 | 0.00 | 0.00 | 93 | 1006.0 |
| 20260506200246 | 55 | 280 | 10.0 | 0.0 | 0.00 | 0.00 | 0.00 | 87 | 1006.0 |
| 20260506193305 | 57 | 270 | 15.0 | 0.0 | 0.00 | 0.00 | 0.00 | 87 | 1006.0 |
| 20260506191605 | 57 | 270 | 18.0 | 30.0 | 0.00 | 0.00 | 0.00 | 82 | 1006.0 |
| 20260506191304 | 57 | 270 | 20.0 | 0.0 | 0.00 | 0.00 | 0.00 | 82 | 1006.0 |
| 20260506190518 | 57 | 270 | 18.0 | 0.0 | 0.00 | 0.00 | 0.00 | 87 | 1005.0 |
| 20260506190306 | 59 | 280 | 14.0 | 0.0 | 0.00 | 0.00 | 0.00 | 82 | 1005.0 |
| 20260506183305 | 64 | 300 | 10.0 | 0.0 | 0.00 | 0.00 | 0.00 | 59 | 1003.0 |
| 20260506180306 | 66 | 290 | 10.0 | 0.0 | 0.00 | 0.00 | 0.00 | 52 | 1002.0 |
| 20260506174305 | 68 | 300 | 12.0 | 0.0 | 0.00 | 0.00 | 0.00 | 45 | 1002.0 |
| 20260506173305 | 70 | 0 | 0.0 | 0.0 | 0.00 | 0.00 | 0.00 | 37 | 1002.0 |
| 20260506170307 | 72 | 130 | 8.0 | 0.0 | 0.00 | 0.00 | 0.00 | 33 | 1002.0 |
| 20260506163252 | 73 | 140 | 5.0 | 0.0 | 0.00 | 0.00 | 0.00 | 31 | 1002.0 |
| 20260506160314 | 75 | 220 | 3.0 | 0.0 | 0.00 | 0.00 | 0.00 | 29 | 1003.0 |
| 20260506153305 | 75 | 170 | 7.0 | 0.0 | 0.00 | 0.00 | 0.00 | 29 | 1003.0 |
| 20260506150259 | 75 | 160 | 7.0 | 0.0 | 0.00 | 0.00 | 0.00 | 29 | 1003.0 |
| 20260506143305 | 75 | 190 | 7.0 | 0.0 | 0.00 | 0.00 | 0.00 | 29 | 1004.0 |
| 20260506140246 | 73 | 200 | 9.0 | 0.0 | 0.00 | 0.00 | 0.00 | 35 | 1004.0 |
| 20260506135306 | 72 | 220 | 12.0 | 0.0 | 0.00 | 0.00 | 0.00 | 40 | 1004.0 |
| 20260506133245 | 72 | 120 | 8.0 | 0.0 | 0.00 | 0.00 | 0.00 | 40 | 1004.0 |
| 20260506130315 | 72 | 120 | 6.0 | 0.0 | 0.00 | 0.00 | 0.00 | 37 | 1005.0 |
| 20260506123305 | 72 | 160 | 6.0 | 0.0 | 0.00 | 0.00 | 0.00 | 37 | 1005.0 |
| 20260506120313 | 70 | 200 | 8.0 | 0.0 | 0.00 | 0.00 | 0.00 | 40 | 1006.0 |
| 20260506113237 | 72 | 180 | 9.0 | 0.0 | 0.00 | 0.00 | 0.00 | 37 | 1006.0 |
| 20260506110312 | 70 | 0 | 2.0 | 0.0 | 0.00 | 0.00 | 0.00 | 40 | 1006.0 |
| 20260506103304 | 70 | 0 | 5.0 | 0.0 | 0.00 | 0.00 | 0.00 | 46 | 1006.0 |
| 20260506100244 | 68 | 0 | 5.0 | 0.0 | 0.00 | 0.00 | 0.00 | 49 | 1007.0 |
| 20260506093238 | 68 | 120 | 7.0 | 0.0 | 0.00 | 0.00 | 0.00 | 49 | 1007.0 |
| 20260506090248 | 66 | 150 | 5.0 | 0.0 | 0.00 | 0.00 | 0.00 | 55 | 1007.0 |
| 20260506083237 | 64 | 0 | 5.0 | 0.0 | 0.00 | 0.00 | 0.00 | 59 | 1007.0 |
| 20260506080312 | 63 | 0 | 2.0 | 0.0 | 0.00 | 0.00 | 0.00 | 59 | 1007.0 |
| 20260506073237 | 63 | 180 | 6.0 | 0.0 | 0.00 | 0.00 | 0.00 | 67 | 1008.0 |
| 20260506070314 | 61 | 0 | 3.0 | 0.0 | 0.00 | 0.00 | 0.00 | 72 | 1007.0 |
| 20260506060314 | 57 | 110 | 6.0 | 0.0 | 0.00 | 0.00 | 0.00 | 82 | 1008.0 |
| 20260506050313 | 55 | 60 | 3.0 | 0.0 | 0.00 | 0.00 | 0.00 | 87 | 1008.0 |